Voltar ao catálogo

ARIANE 5 R/B

AtivoGTO
NORAD 26110·ROCKET BODY·🇫🇷 France

Lançado Mar 21, 2000 de Guiana Space Centre

Loading…

TLE

ObsoletoSource: Space-Track

Época: Sep 14, 2026, 03:37 UTC

1 26110U 00016D   26257.15127281 -.00000086  00000-0  21893-2 0  9996
2 26110   7.1318  11.3595 7091481  13.3824 358.2271  2.27195897219861

Acompanhe ARIANE 5 R/B em tempo real com AllMySat

Download on the App Store